Location: Vlasim
(49.7000°N, 14.9000°E)
Time: 21:49:33
(UTC+01:00)

ISS - Visible Passes

Search period start: 25 March 2023 00:00
Search period end: 04 April 2023 01:00
Orbit: 414 x 422 km, 51.6° (Epoch: 25 March)

Date Brightness Start Highest point End Pass type
(mag) Time Alt. Az. Time Alt. Az. Time Alt. Az.
25 Mar -3.4 19:31:18 10° WNW 19:34:38 60° N 19:36:44 20° E visible
25 Mar -1.5 21:08:08 10° WNW 21:09:40 24° W 21:09:40 24° W visible
26 Mar -3.9 21:20:09 10° WNW 21:23:30 86° SSW 21:23:36 83° SE visible
27 Mar -3.7 20:32:06 10° WNW 20:35:27 76° NNE 20:37:29 22° E visible
27 Mar -1.4 22:09:01 10° W 22:10:25 20° W 22:10:25 20° W visible
28 Mar -3.3 21:20:49 10° WNW 21:24:04 47° SSW 21:24:16 46° SSW visible
29 Mar -3.6 20:32:38 10° WNW 20:35:58 67° SSW 20:38:07 20° SE visible
29 Mar -1.0 22:10:09 10° W 22:11:02 13° WSW 22:11:02 13° WSW visible
30 Mar -2.1 21:21:32 10° W 21:24:15 23° SW 21:24:52 22° SSW visible
31 Mar -2.5 20:33:04 10° W 20:36:08 34° SSW 20:38:43 13° SSE visible
01 Apr -1.0 21:23:13 10° WSW 21:24:03 11° SW 21:24:52 10° SSW visible
02 Apr -1.3 20:33:43 10° W 20:35:55 17° SW 20:38:07 10° S visible
